Flag for Switzerland Weather past 2 weeks in Solothurn, Solothurn, Switzerland

Now
69 °F

Mild.


Feels Like: 69 °F
Forecast: 49 / 78 °F
Wind: 5 mph from East

Location: Grenchen

Current Time: Jul 31, 2014 at 10:05:05 PM

Latest Report: Jul 31, 2014 at 9:00 PM


Visibility: N/A

Pressure: 29.90 "Hg

Humidity: 74%

Dew point: 60 °F

Location of SolothurnLocation

Historic Weather in Solothurn — Graph

°F

Solothurn temperature yesterday

Maximum temperature yesterday: 67 °F (at 5:00 PM)
Minimum temperature yesterday: 60 °F (at 7:00 AM)
Average temperature yesterday: 62 °F

Past Weeks' High & Low Weather Summary

 TemperatureHumidityPressure
High89 °F (Jul 18, 5:00 PM)100% (Jul 23, 5:00 AM)30.21 "Hg (Jul 23, 5:00 AM)
Low54 °F (Jul 25, 6:00 AM)18% (Jul 18, 5:00 PM)29.78 "Hg (Jul 28, 3:00 PM)
Average67 °F79%29.95 "Hg
* Reported Jul 16 8:00 PM — Jul 31 8:00 PM, Solothurn, Weather by CustomWeather, © 2014

Note: Actual official high and low records may vary slightly from our data, if they occured in-between our weather recording intervals... More about our weather records

Advertising

Solothurn weather history for previous 24 hours

 ConditionsComfort  
Time TempWeatherWind HumidityBarometerVisibility
8:00 PM
Jul 31
73 °FMild.6 mph65%29.88 "HgN/A
7:00 PM76 °FMild.10 mph53%29.87 "HgN/A
6:00 PM78 °FWarm.9 mph48%29.87 "HgN/A
5:00 PM78 °FWarm.9 mph47%29.89 "HgN/A
4:00 PM77 °FWarm.8 mph49%29.90 "HgN/A
3:00 PM76 °FMild.10 mph56%29.92 "HgN/A
2:00 PM75 °FMild.12 mph58%29.93 "HgN/A
1:00 PM74 °FMild.13 mph61%29.95 "HgN/A
12:00 PM72 °FMild.13 mph66%29.95 "HgN/A
11:00 AM70 °FMild.12 mph69%29.97 "HgN/A
10:00 AM69 °FMild.8 mph80%29.98 "HgN/A
9:00 AM65 °FMild.6 mph90%29.99 "HgN/A
8:00 AM63 °FMild.3 mph97%29.99 "HgN/A
7:00 AM63 °FMild.1 mph98%30.00 "HgN/A
6:00 AM62 °FMild.1 mph98%29.99 "HgN/A
5:00 AM63 °FMild.2 mph98%29.98 "HgN/A
4:00 AM63 °FMild.2 mph98%29.98 "HgN/A
3:00 AM63 °FMild.No wind96%29.99 "HgN/A
2:00 AM64 °FMild.1 mph96%29.99 "HgN/A
1:00 AM64 °FMild.5 mph95%29.99 "HgN/A
12:00 AM64 °FMild.2 mph96%29.98 "HgN/A
11:00 PM
Jul 30
65 °FMild.3 mph93%29.97 "HgN/A
10:00 PM64 °FMild.6 mph95%29.96 "HgN/A
Weather by CustomWeather, © 2014

See weather overviewHow to use our weather pages